Lewistown, MT

9:04 PM MST on February 12, 2016 (GMT -0700)
Lewistown Municipal

Weather History for KLWT - August, 2013

Change the Weather History Date:

Wednesday, August 7, 2013

  Actual Average Record
Temperature  
Mean Temperature 65 °F 67 °F  
Max Temperature 78 °F 83 °F 97 °F (2001)
Min Temperature 51 °F 51 °F 38 °F (1988)
Degree Days  
Heating Degree Days 0 2  
Month to date heating degree days 13 9  
Since 1 June heating degree days 254 309  
Since 1 July heating degree days 34 82  
Cooling Degree Days 0 4  
Month to date cooling degree days 2 28  
Year to date cooling degree days 128 138  
Since 1 June cooling degree days 125 136  
Growing Degree Days 14 (Base 50)    
Moisture  
Dew Point 50 °F    
Average Humidity 63    
Maximum Humidity 89    
Minimum Humidity 36    
Precipitation  
Precipitation 0.00 in 0.06 in 2.50 in (1900)
Month to date precipitation 1.54 0.38  
Year to date precipitation 17.40 11.65  
Snow  
Snow 0.00 in - - ()
Snow Depth 0.00 in    
Sea Level Pressure  
Sea Level Pressure 29.97 in    
Wind  
Wind Speed 9 mph (East)    
Max Wind Speed 16 mph    
Max Gust Speed 23 mph    
Visibility 10 miles    
Events      
T = Trace of Precipitation, MM = Missing Value Source: NWS Daily Summary

Daily Weather History Graph

Daily Weather History Graph

Search for Another Location

Airport or City:

Trip Planner

Search our weather history database for the weather conditions in past years. The results will help you decide how hot, cold, wet, or windy it might be!

Date:

Astronomy

Aug. 07, 2013 Rise Set
Actual Time 6:05 AM MDT 8:41 PM MDT
Civil Twilight 5:30 AM MDT 9:15 PM MDT
Nautical Twilight 4:46 AM MDT 9:59 PM MDT
Astronomical Twilight 3:56 AM MDT 10:49 PM MDT
Moon 7:04 AM MDT (8/7) 8:40 PM MDT (8/7)
Length of Visible Light 15h 45m
Length of Day
14h 36m
New Moon, 1% of the Moon is Illuminated
Aug 7
New Moon
Aug 14
First Quarter
Aug 20
Full
Aug 28
Last Quarter
Sep 5
New

Hourly Weather History & Observations

Time (MDT) Temp. Dew Point Humidity Pressure Visibility Wind Dir Wind Speed Gust Speed Precip Events Conditions
12:54 AM 54.0 °F 46.9 °F 77% 30.02 in 10.0 mi ESE 6.9 mph - N/A   Clear
1:54 AM 54.0 °F 48.0 °F 80% 30.01 in 10.0 mi East 9.2 mph - N/A   Clear
2:54 AM 52.0 °F 48.0 °F 86% 30.00 in 10.0 mi ESE 8.1 mph - N/A   Clear
3:54 AM 52.0 °F 48.0 °F 86% 29.99 in 10.0 mi ESE 10.4 mph - N/A   Clear
4:54 AM 52.0 °F 46.0 °F 80% 29.98 in 10.0 mi SE 9.2 mph - N/A   Clear
5:54 AM 52.0 °F 46.9 °F 83% 29.97 in 10.0 mi SE 6.9 mph - N/A   Overcast
6:54 AM 52.0 °F 46.0 °F 80% 29.98 in 10.0 mi ESE 8.1 mph - N/A   Scattered Clouds
7:54 AM 57.0 °F 48.9 °F 74% 29.97 in 10.0 mi SE 6.9 mph - N/A   Scattered Clouds
8:54 AM 63.0 °F 51.1 °F 65% 29.96 in 10.0 mi ESE 9.2 mph - N/A   Partly Cloudy
9:54 AM 68.0 °F 52.0 °F 56% 29.96 in 10.0 mi East 6.9 mph - N/A   Clear
10:54 AM 73.0 °F 48.0 °F 41% 29.95 in 10.0 mi Calm Calm - N/A   Clear
11:54 AM 73.9 °F 48.9 °F 41% 29.94 in 10.0 mi ENE 3.5 mph - N/A   Mostly Cloudy
12:54 PM 77.0 °F 48.0 °F 36% 29.93 in 10.0 mi WNW 9.2 mph - N/A   Partly Cloudy
1:54 PM 75.9 °F 46.9 °F 36% 29.94 in 10.0 mi NW 9.2 mph 20.7 mph N/A   Partly Cloudy
2:54 PM 73.9 °F 51.1 °F 45% 29.96 in 10.0 mi NNW 10.4 mph 17.3 mph N/A   Mostly Cloudy
3:54 PM 75.9 °F 48.9 °F 38% 29.96 in 10.0 mi North 12.7 mph 20.7 mph N/A   Partly Cloudy
4:54 PM 75.9 °F 52.0 °F 43% 29.95 in 10.0 mi North 9.2 mph - N/A   Clear
5:54 PM 75.9 °F 48.0 °F 37% 29.95 in 10.0 mi Variable 5.8 mph - N/A   Clear
6:54 PM 71.1 °F 54.0 °F 55% 29.96 in 10.0 mi East 12.7 mph - N/A   Clear
7:54 PM 66.9 °F 54.0 °F 63% 29.97 in 10.0 mi East 10.4 mph - N/A   Clear
8:54 PM 64.0 °F 54.0 °F 70% 29.98 in 10.0 mi East 11.5 mph - N/A   Partly Cloudy
9:54 PM 62.1 °F 53.1 °F 72% 29.99 in 10.0 mi ESE 9.2 mph - N/A   Partly Cloudy
10:54 PM 59.0 °F 53.1 °F 81% 29.99 in 10.0 mi ESE 6.9 mph - N/A   Clear
11:54 PM 57.9 °F 53.1 °F 84% 29.99 in 10.0 mi ESE 9.2 mph - N/A   Partly Cloudy